Weather History for KGUY - November, 2012

Change the Weather History Date:

Monday, November 12, 2012

  Actual Average Record
Temperature  
Mean Temperature 36 °F 47 °F  
Max Temperature 54 °F 62 °F 77 °F (2011)
Min Temperature 18 °F 32 °F 15 °F (2014)
Degree Days  
Heating Degree Days 29 18  
Month to date heating degree days 119 186  
Since 1 July heating degree days 427 495  
Cooling Degree Days 0 0  
Month to date cooling degree days 0 0  
Year to date cooling degree days 1917 1481  
Moisture  
Dew Point 6 °F    
Average Humidity 42    
Maximum Humidity 73    
Minimum Humidity 10    
Precipitation  
Precipitation 0.00 in 0.02 in 0.12 in (2010)
Month to date precipitation T 0.25  
Year to date precipitation 10.79 18.38  
Snow  
Snow 0.00 in - - ()
Month to date snowfall 0.0  
Since 1 July snowfall 0.0  
Since 1 September snowfall 0.0  
Snow Depth 0.00 in    
Sea Level Pressure  
Sea Level Pressure 30.38 in    
Wind  
Wind Speed 6 mph (SW)    
Max Wind Speed 14 mph    
Max Gust Speed 17 mph    
Visibility 10 miles    
Events      
T = Trace of Precipitation, MM = Missing Value Source: NWS Daily Summary

Daily Weather History Graph

Daily Weather History Graph

Search for Another Location

Airport or City:

Trip Planner

Search our weather history database for the weather conditions in past years. The results will help you decide how hot, cold, wet, or windy it might be!

Date:

Astronomy

Nov. 12, 2012 Rise Set
Actual Time 7:21 AM CST 5:38 PM CST
Civil Twilight 6:53 AM CST 6:06 PM CST
Nautical Twilight 6:22 AM CST 6:37 PM CST
Astronomical Twilight 5:52 AM CST 7:07 PM CST
Moon 5:50 AM CST (11/12) 4:44 PM CST (11/12)
Length of Visible Light 11h 12m
Length of Day
10h 17m
Waning Crescent, 2% of the Moon is Illuminated
Nov 12
Waning Crescent
Nov 13
New
Nov 20
First Quarter
Nov 28
Full
Dec 6
Last Quarter

Hourly Weather History & Observations

Time (CST) Temp. Windchill Dew Point Humidity Pressure Visibility Wind Dir Wind Speed Gust Speed Precip Events Conditions
12:53 AM 27.0 °F - 12.9 °F 56% 30.32 in 10.0 mi Calm Calm - N/A   Clear
1:53 AM 23.0 °F 18.4 °F 12.0 °F 63% 30.35 in 10.0 mi NNW 3.5 mph - N/A   Clear
2:53 AM 23.0 °F 17.0 °F 12.9 °F 65% 30.36 in 10.0 mi WSW 4.6 mph - N/A   Clear
3:53 AM 21.9 °F - 12.9 °F 68% 30.36 in 10.0 mi Calm Calm - N/A   Clear
4:53 AM 19.9 °F 14.9 °F 12.9 °F 74% 30.37 in 10.0 mi SSE 3.5 mph - N/A   Clear
5:53 AM 19.9 °F 13.4 °F 12.9 °F 74% 30.40 in 10.0 mi SW 4.6 mph - N/A   Clear
6:53 AM 24.1 °F 14.4 °F 16.0 °F 71% 30.40 in 10.0 mi WSW 9.2 mph - N/A   Clear
7:53 AM 27.0 °F 16.7 °F 17.1 °F 66% 30.41 in 10.0 mi West 11.5 mph - N/A   Clear
8:53 AM 33.1 °F 24.4 °F 16.0 °F 50% 30.43 in 10.0 mi West 11.5 mph - N/A   Clear
9:53 AM 39.9 °F 35.1 °F 12.0 °F 32% 30.43 in 10.0 mi NW 6.9 mph - N/A   Clear
10:53 AM 46.0 °F 43.9 °F 5.0 °F 19% 30.42 in 10.0 mi Variable 4.6 mph - N/A   Clear
11:53 AM 48.0 °F - 3.0 °F 16% 30.41 in 10.0 mi WNW 5.8 mph - N/A   Clear
12:53 PM 51.1 °F - -0.0 °F 12% 30.38 in 10.0 mi Variable 4.6 mph - N/A   Clear
1:53 PM 52.0 °F - -0.0 °F 12% 30.36 in 10.0 mi Variable 3.5 mph - N/A   Clear
2:53 PM 52.0 °F - -0.9 °F 11% 30.35 in 10.0 mi SW 5.8 mph - N/A   Clear
3:53 PM 53.1 °F - -2.9 °F 10% 30.34 in 10.0 mi WSW 3.5 mph - N/A   Clear
4:53 PM 52.0 °F - -2.0 °F 11% 30.35 in 10.0 mi South 3.5 mph - N/A   Clear
5:53 PM 45.0 °F 41.2 °F -0.9 °F 15% 30.37 in 10.0 mi South 6.9 mph - N/A   Clear
6:53 PM 39.0 °F 34.8 °F 1.0 °F 20% 30.38 in 10.0 mi South 5.8 mph - N/A   Clear
7:53 PM 32.0 °F 24.8 °F -0.0 °F 26% 30.40 in 10.0 mi SSW 8.1 mph - N/A   Clear
8:53 PM 32.0 °F 23.6 °F 1.9 °F 28% 30.39 in 10.0 mi SW 10.4 mph - N/A   Clear
9:53 PM 30.0 °F 21.7 °F 1.0 °F 29% 30.39 in 10.0 mi SW 9.2 mph - N/A   Clear
10:53 PM 28.0 °F 20.0 °F 1.0 °F 31% 30.38 in 10.0 mi SSW 8.1 mph - N/A   Clear
11:53 PM 28.9 °F 20.4 °F 1.0 °F 30% 30.37 in 10.0 mi SSW 9.2 mph - N/A   Clear